Regional Weather Roundup
Issued by NWS

Home | Current Version | Previous Version | Text Only | Print | Product List | Glossary On
Versions: 1 2 3 4 5 6 7 8 9 10 11 12 13 14 15 16 17 18 19 20 21 22 23 24 25 26 27 28 29 30 31 32 33 34 35 36 37 38 39 40 41 42 43 44 45 46 47 48 49 50
000
ASUS45 KBOI 070110
RWRID
WEATHER ROUNDUP FOR IDAHO
NATIONAL WEATHER SERVICE BOISE ID
600 PM MST FRI MAR 06 2015

NOTE: "FAIR" INDICATES FEW OR NO CLOUDS BELOW 12000 FEET
WITH NO SIGNIFICANT WEATHER AND/OR OBSTRUCTIONS TO VISIBILITY

IDZ012-014-070200-
SOUTHWEST IDAHO


CITY           SKY/WX    TMP DP  RH WIND       PRES   REMARKS
BOISE          CLEAR     58  24  27 NW6       30.33F
CALDWELL       CLEAR     61  27  27 N3        30.34F
MOUNTAIN HOME  CLEAR     60  23  24 N8        30.33F
$$

IDZ016-017-070200-
SOUTHCENTRAL IDAHO


CITY           SKY/WX    TMP DP  RH WIND       PRES   REMARKS
BURLEY         CLEAR     55  16  21 W7        30.34S
JEROME         CLEAR     54  15  21 W7        30.35F
TWIN FALLS     CLEAR     56  18  22 NW6       30.35F
$$

IDZ019>023-070200-
SOUTHEAST IDAHO


CITY           SKY/WX    TMP DP  RH WIND       PRES   REMARKS
IDAHO FALLS    CLEAR     52  17  25 S12       30.35S
POCATELLO      CLEAR     52  20  28 W8        30.35F
REXBURG        PTCLDY    50  20  30 SW8       30.33F
$$

IDZ006-010-011-018-031-032-070200-
CENTRAL IDAHO MOUNTAINS


CITY           SKY/WX    TMP DP  RH WIND       PRES   REMARKS
MCCALL         CLEAR     52  18  26 NW8       30.34S
HAILEY         PTCLDY    50  25  37 SE12      30.37S
STANLEY          N/A     45  16  31 SW3       30.37F
SALMON         CLEAR     54  16  22 CALM      30.29F
CHALLIS        CLEAR     49  18  29 SW3       30.31F
$$

IDZ002-004-006-007-026-070200-
NORTHERN IDAHO


CITY           SKY/WX    TMP DP  RH WIND       PRES   REMARKS
LEWISTON       CLOUDY    55  33  43 N3        30.31F
LOWELL           N/A     44  33  65 CALM      30.31R
COEUR D`ALENE  CLOUDY    55  34  44 CALM      30.29F
MULLAN PASS    CLOUDY    41  20  43 W5        30.33S
$$


USA.gov is the U.S. government's official web portal to all federal, state and local government web resources and services.